Regional Weather Roundup
Issued by NWS Cleveland, OH

Home | Current Version | Previous Version | Text Only | Print | Product List | Glossary Off
Versions: 1 2 3 4 5 6 7 8 9 10 11 12 13 14 15 16 17 18 19 20 21 22 23 24 25 26 27 28 29 30 31 32 33 34 35 36 37 38 39 40 41 42 43 44 45 46 47 48 49 50

000
ASUS41 KCLE 201710
RWRCLE
OHIO REGIONAL WEATHER ROUNDUP
NATIONAL WEATHER SERVICE WILMINGTON, OH
100 PM EDT SAT SEP 20 2014

NOTE: "FAIR" INDICATES FEW OR NO CLOUDS BELOW 12,000 FEET WITH NO
SIGNIFICANT WEATHER AND/OR OBSTRUCTIONS TO VISIBILITY.

OHZ001>008-015>018-024>027-034-035-043-044-201800-
   NORTHWEST OHIO

CITY           SKY/WX    TMP DP  RH WIND       PRES   REMARKS
DEFIANCE       PTSUNNY   77  59  53 SW17G29   29.95F
FINDLAY        MOSUNNY   79  59  50 SW18G28   29.98F
TOLEDO EXPRESS MOSUNNY   76  59  55 SW10G23   29.94F
TOLEDO METCALF MOSUNNY   78  57  48 SW15G25   29.95F
LIMA           MOSUNNY   78  60  53 SW21      30.00F
$$

OHZ009>014-019>023-028>033-038-089-201800-
   NORTHEAST OHIO

CITY           SKY/WX    TMP DP  RH WIND       PRES   REMARKS
CLE-HOPKINS    PTSUNNY   74  62  66 SW16G23   30.02F
CLE-LAKEFRONT  PTSUNNY   76  60  57 S16       29.99F
CUY CO. ARPT   PTSUNNY   75  63  64 SW16G23   30.02F
LORAIN-ELYRIA  PTSUNNY   79  61  53 SW18G26   30.01F
ASHTABULA      PTSUNNY   72  61  68 S15       30.03F
AKRON-CANTON   PTSUNNY   74  60  61 SW12G18   30.06F
WOOSTER        PTSUNNY   75  62  64 S8        30.05F
MANSFIELD      CLOUDY    75  61  61 SW13G22   30.04F
YOUNGSTOWN     CLOUDY    73  61  65 SW10      30.07S
$$

OHZ042-051>053-060>062-070>072-077>081-201800-
  SOUTHWEST OHIO

CITY           SKY/WX    TMP DP  RH WIND       PRES   REMARKS
CINC-COVINGTON PTSUNNY   77  65  66 SW12      30.07F
CINC-LUNKEN    PTSUNNY   79  66  64 SW14      30.07F
HAMILTON       PTSUNNY   77  65  66 VRB7      30.07F
DAYTON         CLOUDY    78  63  59 SW12      30.06F
WRIGHT-PAT AFB PTSUNNY   76  64  65 SW10      30.06S
DAYTON GENERAL PTSUNNY   75  63  66 W10       30.06F
WILMINGTON     PTSUNNY   76  64  66 SW14      30.07F
$$

OHZ036-037-039>041-045>050-054>059-063>069-073>076-082>088-201800-
  CENTRAL AND SOUTHEAST OHIO

CITY           SKY/WX    TMP DP  RH WIND       PRES   REMARKS
COLUMBUS       CLOUDY    80  62  54 SW12      30.05F
OSU AIRPORT    PTSUNNY   77  63  61 SW12      30.05F
BOLTON FIELD   PTSUNNY   75  64  69 SW15      30.06F
RICKENBACK AFB PTSUNNY   78  63  60 SW14G21   30.05F
NEWARK         PTSUNNY   78  63  59 W13       30.05F
MARION         PTSUNNY   76  62  62 SW15      30.03F
LANCASTER      PTSUNNY   78  62  57 SW12      30.07F
ZANESVILLE     CLOUDY    75  60  59 S13       30.08F
NEW PHILLY     PTSUNNY   76  62  62 VRB7      30.07F
$$


USA.gov is the U.S. government's official web portal to all federal, state and local government web resources and services.